Overview Statistics Trail Chart Weather Telemetry Raw packets
 

This is the latest recevied weather packets stored in our database for station/object LU1MQF-13. If no packets are shown the sender has not sent any weather packets the latest 10 day(s).

<< 11 12 13 14 15 16 17 >>
Time Temp. Humidity Pressure Rain* Wind** Luminosity Snow
1777750921 17.78° C 31% 946.9 hPa - - - -
1777750021 17.78° C 31% 946.8 hPa - - - -
1777749122 17.78° C 31% 946.9 hPa - - - -
1777748221 18.89° C 31% 947 hPa - - - -
1777747322 18.89° C 33% 947.4 hPa - - - -
1777746421 18.89° C 33% 947.6 hPa - - - -
1777745521 18.89° C 34% 947.9 hPa - - - -
1777744622 18.89° C 32% 948.1 hPa - - - -
1777743721 17.78° C 30% 948.4 hPa - - - -
1777742821 17.78° C 31% 948.6 hPa - - - -
1777741921 18.89° C 32% 948.9 hPa - - - -
1777741021 18.89° C 31% 949.3 hPa - - - -
1777740121 18.89° C 34% 949.6 hPa - - - -
1777739222 18.89° C 33% 950 hPa - - - -
1777738321 17.78° C 32% 950.2 hPa - - - -
1777737422 17.78° C 29% 950.8 hPa - - - -
1777735621 17.22° C 30% 951.2 hPa - - - -
1777734721 17.22° C 31% 951.4 hPa - - - -
1777733827 17.22° C 31% 951.7 hPa - - - -
1777732921 17.22° C 32% 952 hPa - - - -
1777732021 16.11° C 32% 952.1 hPa - - - -
1777731121 17.22° C 32% 952.2 hPa - - - -
1777730221 16.11° C 33% 952.5 hPa - - - -
1777729320 15° C 34% 952.4 hPa - - - -
1777728421 13.89° C 32% 952.4 hPa - - - -

* Rain since midnight (hover to see other rain measurements)
** Current wind speed in m/s (hover to see current wind gust speed)